This is the latest recevied weather packets stored in our database for station/object K6CEG. If no packets are shown the sender has not sent any weather packets the latest 10 day(s).
| Time | Temp. | Humidity | Pressure | Rain* | Wind** | Luminosity | Snow |
|---|---|---|---|---|---|---|---|
| 1788468227 | 28.89° C | 42% | 1014.7 hPa | 0 mm | - | 579 W/m² | - |
| 1788467923 | 28.89° C | 42% | 1014.6 hPa | 0 mm | - | 642 W/m² | - |
| 1788467618 | 27.78° C | 43% | 1014.5 hPa | 0 mm | - | 617 W/m² | - |
| 1788467317 | 28.33° C | 42% | 1014.7 hPa | 0 mm | - | 676 W/m² | - |
| 1788467014 | 28.89° C | 41% | 1014.7 hPa | 0 mm | - | 666 W/m² | - |
| 1788466713 | 28.89° C | 40% | 1014.5 hPa | 0 mm | - | 644 W/m² | - |
| 1788466409 | 28.33° C | 41% | 1015.1 hPa | 0 mm | - | 665 W/m² | - |
| 1788466107 | 28.89° C | 42% | 1014.9 hPa | 0 mm | - | 672 W/m² | - |
| 1788465803 | 28.33° C | 42% | 1014.7 hPa | 0 mm | - | 642 W/m² | - |
| 1788465498 | 28.33° C | 41% | 1014.9 hPa | 0 mm | - | 597 W/m² | - |
| 1788465194 | 27.78° C | 42% | 1014.9 hPa | 0 mm | - | 592 W/m² | - |
| 1788464889 | 28.33° C | 41% | 1015.2 hPa | 0 mm | - | 632 W/m² | - |
| 1788464584 | 28.33° C | 40% | 1015.6 hPa | 0 mm | - | 667 W/m² | - |
| 1788464280 | 27.78° C | 41% | 1015.3 hPa | 0 mm | - | 654 W/m² | - |
| 1788463990 | 28.33° C | 39% | 1015.4 hPa | 0 mm | - | 660 W/m² | - |
| 1788463671 | 27.78° C | 41% | 1015.4 hPa | 0 mm | - | 687 W/m² | - |
| 1788463367 | 27.78° C | 41% | 1015.6 hPa | 0 mm | - | 717 W/m² | - |
| 1788463063 | 27.22° C | 43% | 1015.6 hPa | 0 mm | - | 715 W/m² | - |
| 1788462759 | 27.78° C | 41% | 1015.5 hPa | 0 mm | - | 698 W/m² | - |
| 1788462475 | 26.67° C | 43% | 1015.8 hPa | 0 mm | - | 723 W/m² | - |
| 1788462147 | 27.78° C | 42% | 1015.9 hPa | 0 mm | - | 758 W/m² | - |
| 1788461842 | 27.22° C | 42% | 1016 hPa | 0 mm | - | 766 W/m² | - |
| 1788461542 | 27.22° C | 42% | 1016.2 hPa | 0 mm | - | 774 W/m² | - |
| 1788461239 | 27.22° C | 44% | 1016.1 hPa | 0 mm | - | 789 W/m² | - |
| 1788460935 | 26.67° C | 45% | 1016.3 hPa | 0 mm | - | 747 W/m² | - |
* Rain latest hour (hover to see other rain measurements)
** Current wind speed in m/s (hover to see current wind gust speed)